Location: Edinburgh
(55.9500°N, 3.1600°W)
Time: 17:21:31
(UTC+01:00)

AO-91 - Visible Passes

Search period start: 28 May 2024 00:00
Search period end: 07 June 2024 00:00
Orbit: 441 x 736 km, 97.6° (Epoch: 27 May)

Date Brightness Start Highest point End Pass type
(mag) Time Alt. Az. Time Alt. Az. Time Alt. Az.
28 May ? 00:19:33 10° N 00:23:17 28° WNW 00:27:15 10° WSW visible
28 May ? 22:51:04 10° NNE 22:55:32 65° ESE 23:00:18 10° S visible
29 May ? 00:27:07 10° N 00:30:45 25° WNW 00:34:34 10° WSW visible
29 May ? 22:58:31 10° NNE 23:03:03 74° ESE 23:07:52 10° S visible
30 May ? 00:34:42 10° N 00:38:11 23° WNW 00:41:50 10° WSW visible
30 May ? 23:05:58 10° NNE 23:10:32 85° E 23:15:25 10° SSW visible
31 May ? 00:42:16 10° N 00:45:35 21° WNW 00:49:04 10° WSW visible
31 May ? 23:13:24 10° NNE 23:18:01 85° WNW 23:22:54 10° SSW visible
01 Jun ? 00:49:50 10° NNW 00:52:59 19° NW 00:56:15 10° W visible
01 Jun ? 23:20:51 10° NNE 23:25:28 75° WNW 23:30:21 10° SSW visible
02 Jun ? 00:57:24 10° NNW 01:00:20 17° NW 01:03:22 10° W visible
02 Jun ? 23:28:16 10° N 23:32:54 66° WNW 23:37:45 10° SSW visible
03 Jun ? 01:04:58 10° NNW 01:07:40 15° NW 01:10:26 10° W visible
03 Jun ? 23:35:41 10° N 23:40:18 58° WNW 23:45:07 10° SSW visible
04 Jun ? 01:12:34 10° NNW 01:14:59 14° NW 01:17:26 10° W visible
04 Jun ? 23:43:05 10° N 23:47:40 51° WNW 23:52:26 10° SW visible
05 Jun ? 01:20:12 10° NNW 01:22:16 13° NW 01:24:22 10° WNW visible
05 Jun ? 23:50:29 10° N 23:55:01 45° WNW 23:59:43 10° SW visible
06 Jun ? 01:27:53 10° NNW 01:29:31 12° NW 01:31:11 10° WNW visible
